EJA263 KHPN-KIND

Flight info

Callsign EJA263
Flight time N/A
Altitude 40000
Route ZIMMZ Q42 HIDON RINTE SNKPT2
Aircraft CL60/M-SBDE1E2E3FGHIJ1J4J5J7M3RWXYZ/LB1V1D1

Departure

Time 2026-04-30 10:08
Airport Westchester County Airport (KHPN)

Arrival

Time N/A
Airport Indianapolis International Airport (KIND)
Time Latitude Longitude Altitude Speed Heading
2026-04-30 10:01 41.07493 -73.70937 430 ft 0 kts 326°
2026-04-30 10:06 41.07509 -73.70955 430 ft 4 kts 311°
2026-04-30 10:06 41.07510 -73.71009 430 ft 3 kts 254°
2026-04-30 10:07 41.07518 -73.71054 430 ft 6 kts 318°
2026-04-30 10:07 41.07543 -73.71117 431 ft 9 kts 276°
2026-04-30 10:07 41.07551 -73.71211 430 ft 11 kts 277°
2026-04-30 10:07 41.07552 -73.71291 430 ft 6 kts 263°
2026-04-30 10:08 41.07525 -73.71307 430 ft 4 kts 149°
2026-04-30 10:08 41.07448 -73.71248 429 ft 49 kts 149°
2026-04-30 10:08 41.06838 -73.70782 409 ft 146 kts 150°
2026-04-30 10:08 41.05880 -73.70032 1054 ft 170 kts 153°
2026-04-30 10:09 41.04672 -73.69769 1787 ft 199 kts 192°
2026-04-30 10:09 41.03462 -73.70693 2589 ft 210 kts 227°
2026-04-30 10:09 41.02802 -73.72446 3116 ft 221 kts 258°
2026-04-30 10:09 41.02971 -73.74567 3468 ft 241 kts 291°
2026-04-30 10:10 41.03907 -73.76442 3990 ft 250 kts 305°
2026-04-30 10:10 41.05035 -73.78270 4567 ft 268 kts 307°
2026-04-30 10:10 41.06250 -73.80170 5954 ft 274 kts 307°
2026-04-30 10:10 41.07455 -73.82024 7495 ft 271 kts 307°
2026-04-30 10:11 41.08693 -73.83909 8639 ft 279 kts 307°
2026-04-30 10:11 41.09845 -73.85949 9701 ft 281 kts 291°
2026-04-30 10:11 41.10303 -73.88451 10423 ft 294 kts 271°
2026-04-30 10:11 41.10369 -73.91312 10812 ft 325 kts 267°
2026-04-30 10:12 41.10384 -73.94368 11717 ft 338 kts 267°
2026-04-30 10:12 41.10395 -73.97451 12816 ft 342 kts 267°
2026-04-30 10:12 41.10399 -74.00571 13913 ft 341 kts 266°
2026-04-30 10:12 41.10059 -74.03677 14782 ft 341 kts 253°
2026-04-30 10:13 41.09375 -74.06667 15575 ft 346 kts 251°
2026-04-30 10:13 41.08567 -74.09703 16387 ft 349 kts 250°
2026-04-30 10:13 41.07748 -74.12737 17182 ft 352 kts 250°
2026-04-30 10:13 41.06929 -74.15775 18043 ft 354 kts 250°
2026-04-30 10:14 41.06103 -74.18834 18949 ft 355 kts 250°
2026-04-30 10:14 41.05267 -74.21923 19783 ft 358 kts 249°
2026-04-30 10:14 41.03570 -74.28177 21299 ft 365 kts 249°
2026-04-30 10:15 41.02711 -74.31340 22013 ft 369 kts 249°
2026-04-30 10:15 41.01848 -74.34508 22713 ft 372 kts 249°
2026-04-30 10:15 41.00969 -74.37731 23390 ft 375 kts 249°
2026-04-30 10:15 41.00081 -74.40987 24048 ft 378 kts 249°
2026-04-30 10:16 40.99178 -74.44292 24671 ft 382 kts 249°
2026-04-30 10:16 40.98279 -74.47572 25303 ft 384 kts 249°
2026-04-30 10:16 40.97371 -74.50890 26046 ft 384 kts 249°
2026-04-30 10:17 40.95572 -74.57439 27777 ft 375 kts 250°
2026-04-30 10:17 40.93815 -74.63820 29358 ft 367 kts 250°
2026-04-30 10:17 40.92955 -74.66936 30058 ft 364 kts 249°
2026-04-30 10:18 40.92087 -74.70077 30754 ft 361 kts 249°
2026-04-30 10:18 40.91235 -74.73157 31330 ft 359 kts 250°
2026-04-30 10:18 40.90382 -74.76237 31864 ft 357 kts 250°
2026-04-30 10:19 40.88685 -74.82352 32704 ft 355 kts 250°
2026-04-30 10:19 40.87832 -74.85417 33039 ft 355 kts 250°
2026-04-30 10:19 40.86988 -74.88451 33370 ft 355 kts 250°
2026-04-30 10:19 40.86133 -74.91519 33712 ft 354 kts 250°
2026-04-30 10:20 40.85287 -74.94548 34047 ft 354 kts 251°
2026-04-30 10:20 40.83578 -75.00662 34726 ft 354 kts 251°
2026-04-30 10:20 40.82727 -75.03702 35061 ft 354 kts 251°
2026-04-30 10:21 40.81877 -75.06731 35390 ft 354 kts 251°
2026-04-30 10:21 40.81024 -75.09769 35715 ft 353 kts 251°
2026-04-30 10:21 40.80234 -75.12794 36003 ft 352 kts 256°
2026-04-30 10:21 40.79730 -75.15959 36274 ft 352 kts 259°
2026-04-30 10:22 40.79283 -75.19109 36521 ft 353 kts 259°
2026-04-30 10:22 40.78825 -75.22295 36753 ft 353 kts 259°
2026-04-30 10:22 40.78368 -75.25462 36964 ft 355 kts 259°
2026-04-30 10:22 40.77906 -75.28652 37178 ft 355 kts 259°
2026-04-30 10:23 40.77439 -75.31871 37421 ft 355 kts 259°
2026-04-30 10:23 40.76977 -75.35042 37607 ft 356 kts 259°
2026-04-30 10:23 40.76400 -75.38238 37788 ft 357 kts 253°
2026-04-30 10:23 40.75440 -75.41274 37830 ft 364 kts 246°
2026-04-30 10:24 40.73165 -75.47350 37834 ft 375 kts 246°
2026-04-30 10:24 40.70837 -75.53571 37833 ft 385 kts 246°
2026-04-30 10:25 40.68448 -75.59944 37840 ft 394 kts 246°
2026-04-30 10:25 40.65998 -75.66466 37837 ft 400 kts 246°
2026-04-30 10:26 40.63518 -75.73058 37837 ft 404 kts 245°
2026-04-30 10:26 40.61023 -75.79670 37833 ft 404 kts 245°
2026-04-30 10:27 40.58532 -75.86244 37831 ft 403 kts 246°
2026-04-30 10:27 40.56034 -75.92812 37833 ft 401 kts 246°
2026-04-30 10:28 40.53543 -75.99349 37838 ft 401 kts 246°
2026-04-30 10:28 40.51057 -76.05859 37835 ft 401 kts 246°
2026-04-30 10:29 40.48561 -76.12380 37831 ft 401 kts 246°
2026-04-30 10:29 40.46063 -76.18893 37826 ft 400 kts 246°
2026-04-30 10:30 40.43561 -76.25404 37829 ft 399 kts 246°
2026-04-30 10:30 40.41062 -76.31889 37831 ft 398 kts 246°
2026-04-30 10:31 40.38570 -76.38345 37828 ft 398 kts 246°
2026-04-30 10:31 40.36077 -76.44789 37834 ft 397 kts 246°
2026-04-30 10:32 40.34033 -76.51424 37841 ft 394 kts 258°